START_TIME,STEP,MOV.,M29,t_acc.,H22,t_acc.,H26,t_acc.,H30,t_acc.
1979-07-06 18:00:32.560 ,1,1,0.,24.0,0.,24.0,0.,24.0,0.,24.0
1979-07-06 18:00:56.560 ,2,1,0.,24.0,0.,24.0,0.,24.0,0.,24.0
1979-07-06 18:01:20.560 ,6,1,0.,24.0,0.,24.0,0.,24.0,0.,24.0
1979-07-06 18:01:44.560 ,5,1,0.,24.0,0.,24.0,0.,24.0,0.,24.0
1979-07-06 18:02:08.560 ,1,1,0.,24.0,0.,24.0,0.,24.0,0.,24.0
1979-07-06 18:02:32.560 ,2,1,0.,24.0,0.,24.0,0.,24.0,0.,24.0
1979-07-06 18:02:56.560 ,6,1,0.,24.0,0.,24.0,0.,24.0,0.,24.0
1979-07-06 18:03:20.560 ,5,1,0.,24.0,0.,24.0,0.,24.0,0.,24.0
1979-07-06 18:03:44.560 ,1,1,0.,24.0,0.,24.0,0.,24.0,0.,24.0
1979-07-06 18:04:08.560 ,2,1,0.,24.0,0.,24.0,0.,24.0,0.,24.0
1979-07-06 18:04:32.560 ,6,1,0.,24.0,0.,24.0,0.,24.0,0.,24.0
1979-07-06 18:04:56.560 ,5,1,0.,24.0,0.,24.0,0.,24.0,0.,24.0
1979-07-06 18:05:20.560 ,1,1,0.,24.0,0.,24.0,0.,24.0,0.,24.0
1979-07-06 18:05:44.560 ,0,0,0.,24.0,0.,24.0,0.,24.0,0.,24.0
1979-07-06 18:06:08.560 ,0,0,0.,24.0,0.,24.0,0.,24.0,0.,24.0
1979-07-06 18:06:32.560 ,5,1,0.,24.0,0.,24.0,0.,24.0,0.,24.0
1979-07-06 18:06:56.560 ,5,0,0.,24.0,0.,24.0,0.,24.0,0.,24.0
1979-07-06 18:07:20.560 ,4,1,0.,24.0,0.,24.0,0.,24.0,0.,24.0
1979-07-06 18:07:44.560 ,4,0,0.,24.0,0.,24.0,0.,24.0,0.,24.0
1979-07-06 18:08:08.560 ,3,1,0.,24.0,0.,24.0,0.,24.0,0.,24.0
1979-07-06 18:08:32.560 ,3,0,0.,24.0,0.,24.0,0.,24.0,0.,24.0
1979-07-06 18:08:56.560 ,2,1,0.,24.0,0.,24.0,0.,24.0,0.,24.0
1979-07-06 18:09:20.560 ,2,0,0.,24.0,0.,24.0,0.,24.0,0.,24.0
1979-07-06 18:09:44.560 ,1,1,0.,24.0,0.,24.0,0.,24.0,0.,24.0
1979-07-06 18:10:08.560 ,1,0,0.,24.0,0.,24.0,0.,24.0,0.,24.0
1979-07-06 18:10:32.560 ,0,1,0.,24.0,0.,24.0,0.,24.0,0.,24.0
1979-07-06 18:10:56.560 ,0,0,0.,24.0,0.,24.0,0.,24.0,0.,24.0
1979-07-06 18:11:20.560 ,0,1,0.,24.0,0.,24.0,0.,24.0,0.,24.0
1979-07-06 18:11:44.560 ,0,0,0.,24.0,0.,24.0,0.,24.0,0.,24.0
1979-07-06 18:12:08.560 ,1,1,0.,24.0,0.,24.0,0.,24.0,0.,24.0
1979-07-06 18:12:32.560 ,1,0,0.,24.0,0.,24.0,0.,24.0,0.,24.0
1979-07-06 18:12:56.560 ,2,1,0.,24.0,0.,24.0,0.,24.0,0.,24.0
1979-07-06 18:13:20.560 ,2,0,0.,24.0,0.,24.0,0.,24.0,0.,24.0
1979-07-06 18:13:44.560 ,3,1,0.,24.0,0.,24.0,0.,24.0,0.,24.0
1979-07-06 18:14:08.560 ,3,0,0.,24.0,0.,24.0,0.,24.0,0.,24.0
1979-07-06 18:14:32.560 ,4,1,0.,24.0,0.,24.0,0.,24.0,0.,24.0
1979-07-06 18:14:56.560 ,4,0,0.,24.0,0.,24.0,0.,24.0,0.,24.0
1979-07-06 18:15:20.560 ,5,1,0.,24.0,0.,24.0,0.,24.0,0.,24.0
1979-07-06 18:15:44.560 ,5,0,0.,24.0,0.,24.0,0.,24.0,0.,24.0
1979-07-06 18:16:08.560 ,6,1,0.,24.0,0.,24.0,0.,24.0,0.,24.0
1979-07-06 18:16:32.560 ,6,0,0.,24.0,0.,24.0,0.,24.0,0.,24.0
1979-07-06 18:16:56.560 ,7,1,0.,24.0,0.,24.0,0.,24.0,0.,24.0
1979-07-06 18:17:20.560 ,7,0,0.,24.0,0.,24.0,0.,24.0,0.,24.0
1979-07-06 18:17:44.560 ,7,1,0.,24.0,0.,24.0,0.,24.0,0.,24.0
1979-07-06 18:18:08.560 ,7,0,0.,24.0,0.,24.0,0.,24.0,0.,24.0
1979-07-06 18:18:32.560 ,6,1,0.,24.0,0.,24.0,0.,24.0,0.,24.0
1979-07-06 18:18:56.560 ,6,0,0.,24.0,0.,24.0,0.,24.0,0.,24.0
1979-07-06 18:19:20.560 ,5,1,0.,24.0,0.,24.0,0.,24.0,0.,24.0
1979-07-06 18:19:44.560 ,5,0,0.,24.0,0.,24.0,0.,24.0,0.,24.0
1979-07-06 18:20:08.560 ,4,1,0.,24.0,0.,24.0,0.,24.0,0.,24.0
1979-07-06 18:20:32.560 ,4,0,0.,24.0,0.,24.0,0.,24.0,0.,24.0
1979-07-06 18:20:56.560 ,3,1,0.,24.0,0.,24.0,0.,24.0,0.,24.0
1979-07-06 18:21:20.560 ,3,0,0.,24.0,0.,24.0,0.,24.0,0.,24.0
1979-07-06 18:21:44.560 ,2,1,0.,24.0,0.,24.0,0.,24.0,0.,24.0
1979-07-06 18:22:08.560 ,2,0,0.,24.0,0.,24.0,0.,24.0,0.,24.0
1979-07-06 18:22:32.560 ,1,1,0.,24.0,0.,24.0,0.,24.0,0.,24.0
1979-07-06 18:22:56.560 ,1,0,0.,24.0,0.,24.0,0.,24.0,0.,24.0
1979-07-06 18:23:20.560 ,0,1,0.,24.0,0.,24.0,0.,24.0,0.,24.0
1979-07-06 18:23:44.560 ,0,0,0.,24.0,0.,24.0,0.,24.0,0.,24.0
1979-07-06 18:24:08.560 ,0,1,0.,24.0,0.,24.0,0.,24.0,0.,24.0
1979-07-06 18:24:32.560 ,0,0,0.,24.0,0.,24.0,0.,24.0,0.,24.0
1979-07-06 18:24:56.560 ,1,1,0.,24.0,0.,24.0,0.,24.0,0.,24.0
1979-07-06 18:25:20.560 ,1,0,0.,24.0,0.,24.0,0.,24.0,0.,24.0
1979-07-06 18:25:44.560 ,2,1,0.,24.0,0.,24.0,0.,24.0,0.,24.0
1979-07-06 18:26:08.560 ,2,0,0.,24.0,0.,24.0,0.,24.0,0.,24.0
1979-07-06 18:26:32.560 ,3,1,0.,24.0,0.,24.0,0.,24.0,0.,24.0
1979-07-06 18:26:56.560 ,3,0,0.,24.0,0.,24.0,0.,24.0,0.,24.0
1979-07-06 18:27:20.560 ,4,1,0.,24.0,0.,24.0,0.,24.0,0.,24.0
1979-07-06 18:27:44.560 ,4,0,0.,24.0,0.,24.0,0.,24.0,0.,24.0
1979-07-06 18:28:08.560 ,5,1,0.,24.0,0.,24.0,0.,24.0,0.,24.0
1979-07-06 18:28:32.560 ,5,0,0.,24.0,0.,24.0,0.,24.0,0.,24.0
1979-07-06 18:28:56.560 ,6,1,0.,24.0,0.,24.0,0.,24.0,0.,24.0
1979-07-06 18:29:20.560 ,6,0,0.,24.0,0.,24.0,0.,24.0,0.,24.0
1979-07-06 18:29:44.560 ,7,1,0.,24.0,0.,24.0,0.,24.0,0.,24.0
1979-07-06 18:30:08.560 ,7,0,0.,24.0,0.,24.0,0.,24.0,0.,24.0
1979-07-06 18:30:32.560 ,7,1,0.,24.0,0.,24.0,0.,24.0,0.,24.0
1979-07-06 18:30:56.560 ,7,0,0.,24.0,0.,24.0,0.,24.0,0.,24.0
1979-07-06 18:31:20.560 ,6,1,0.,24.0,0.,24.0,0.,24.0,0.,24.0
1979-07-06 18:31:44.560 ,6,0,0.,24.0,0.,24.0,0.,24.0,0.,24.0
1979-07-06 18:32:08.560 ,5,1,0.,24.0,0.,24.0,0.,24.0,0.,24.0
1979-07-06 18:32:32.560 ,5,0,0.,24.0,0.,24.0,0.,24.0,0.,24.0
1979-07-06 18:32:56.560 ,4,1,0.,24.0,0.,24.0,0.,24.0,0.,24.0
1979-07-06 18:33:20.560 ,0,0,0.,24.0,0.,24.0,0.,24.0,0.,24.0
1979-07-06 18:34:03.160 ,0,0,,0,,0,,0,,0
1979-07-06 18:34:08.560 ,0,0,0.,24.0,0.,24.0,0.,24.0,0.,24.0
1979-07-06 18:34:32.560 ,2,1,0.,24.0,0.,24.0,0.,24.0,0.,24.0
1979-07-06 18:34:56.560 ,2,0,0.,24.0,0.,24.0,0.,24.0,0.,24.0
1979-07-06 18:35:20.560 ,1,1,0.,24.0,0.,24.0,0.,24.0,0.,24.0
1979-07-06 18:35:44.560 ,1,0,0.,24.0,0.,24.0,0.,24.0,0.,24.0
1979-07-06 18:36:08.560 ,0,1,0.,24.0,0.,24.0,0.,24.0,0.,24.0
1979-07-06 18:36:32.560 ,0,0,0.,24.0,0.,24.0,0.,24.0,0.,24.0
1979-07-06 18:36:56.560 ,0,1,0.,24.0,0.,24.0,0.,24.0,0.,24.0
1979-07-06 18:37:20.560 ,0,0,0.,24.0,0.,24.0,0.,24.0,0.,24.0
1979-07-06 18:37:44.560 ,1,1,0.,24.0,0.,24.0,0.,24.0,0.,24.0
1979-07-06 18:38:08.560 ,1,0,0.,24.0,0.,24.0,0.,24.0,0.,24.0
1979-07-06 18:38:32.560 ,2,1,0.,24.0,0.,24.0,0.,24.0,0.,24.0
1979-07-06 18:38:56.560 ,2,0,0.,24.0,0.,24.0,0.,24.0,0.,24.0
1979-07-06 18:39:20.560 ,3,1,0.,24.0,0.,24.0,0.,24.0,0.,24.0
1979-07-06 18:39:44.560 ,3,0,0.,24.0,0.,24.0,0.,24.0,0.,24.0
1979-07-06 18:40:08.560 ,4,1,0.,24.0,0.,24.0,0.,24.0,0.,24.0
1979-07-06 18:40:32.560 ,4,0,0.,24.0,0.,24.0,0.,24.0,0.,24.0
1979-07-06 18:40:56.560 ,5,1,0.,24.0,0.,24.0,0.,24.0,0.,24.0
1979-07-06 18:41:20.560 ,5,0,0.,24.0,0.,24.0,0.,24.0,0.,24.0
1979-07-06 18:41:44.560 ,6,1,0.,24.0,0.,24.0,0.,24.0,0.,24.0
1979-07-06 18:42:08.560 ,6,0,0.,24.0,0.,24.0,0.,24.0,0.,24.0
1979-07-06 18:42:32.560 ,7,0,0.,24.0,0.,24.0,0.,24.0,0.,24.0
1979-07-06 18:42:56.560 ,7,0,0.,24.0,0.,24.0,0.,24.0,0.,24.0
1979-07-06 18:43:20.560 ,5,1,0.,24.0,0.,24.0,0.,24.0,0.,24.0
1979-07-06 18:43:44.560 ,1,1,0.,24.0,0.,24.0,0.,24.0,0.,24.0
1979-07-06 18:44:08.560 ,2,1,0.,24.0,0.,24.0,0.,24.0,0.,24.0
1979-07-06 18:44:32.560 ,6,1,0.,24.0,0.,24.0,0.,24.0,0.,24.0
1979-07-06 18:44:56.560 ,5,1,0.,24.0,0.,24.0,0.,24.0,0.,24.0
1979-07-06 18:45:20.560 ,1,1,0.,24.0,0.,24.0,0.,24.0,0.,24.0
1979-07-06 18:45:44.560 ,2,1,0.,24.0,0.,24.0,0.,24.0,0.,24.0
1979-07-06 18:46:08.560 ,6,1,0.,24.0,0.,24.0,0.,24.0,0.,24.0
1979-07-06 18:46:32.560 ,5,1,0.,24.0,0.,24.0,0.,24.0,0.,24.0
1979-07-06 18:46:56.560 ,1,1,0.,24.0,0.,24.0,0.,24.0,0.,24.0
1979-07-06 18:47:20.560 ,2,1,0.,24.0,0.,24.0,0.,24.0,0.,24.0
1979-07-06 18:47:44.560 ,6,1,0.,24.0,0.,24.0,0.,24.0,0.,24.0
1979-07-06 18:48:08.560 ,5,1,0.,24.0,0.,24.0,0.,24.0,0.,24.0
1979-07-06 18:48:32.560 ,1,1,0.,24.0,0.,24.0,0.,24.0,0.,24.0
1979-07-06 18:48:56.560 ,2,1,0.,24.0,0.,24.0,0.,24.0,0.,24.0
1979-07-06 18:49:20.560 ,6,1,0.,24.0,0.,24.0,0.,24.0,0.,24.0
1979-07-06 18:49:44.560 ,5,1,0.,24.0,0.,24.0,0.,24.0,0.,24.0
1979-07-06 18:50:08.560 ,1,1,0.,24.0,0.,24.0,0.,24.0,0.,24.0
1979-07-06 18:50:32.560 ,2,1,0.,24.0,0.,24.0,0.,24.0,0.,24.0
1979-07-06 18:50:56.560 ,6,1,0.,24.0,0.,24.0,0.,24.0,0.,24.0
1979-07-06 18:51:20.560 ,5,1,0.,24.0,0.,24.0,0.,24.0,0.,24.0
1979-07-06 18:51:44.560 ,1,1,0.,24.0,0.,24.0,0.,24.0,0.,24.0
1979-07-06 18:52:08.560 ,2,1,0.,24.0,0.,24.0,0.,24.0,0.,24.0
1979-07-06 18:52:32.560 ,6,1,0.,24.0,0.,24.0,0.,24.0,0.,24.0
1979-07-06 18:52:56.560 ,5,1,0.,24.0,0.,24.0,0.,24.0,0.,24.0
1979-07-06 18:53:20.560 ,1,1,0.,24.0,0.,24.0,0.,24.0,0.,24.0
1979-07-06 18:53:44.560 ,0,0,0.,24.0,0.,24.0,0.,24.0,0.,24.0
1979-07-06 18:54:08.560 ,0,0,0.,24.0,0.,24.0,0.,24.0,0.,24.0
1979-07-06 18:54:32.560 ,5,1,0.,24.0,0.,24.0,0.,24.0,0.,24.0
1979-07-06 18:54:56.560 ,5,0,0.,24.0,0.,24.0,0.,24.0,0.,24.0
1979-07-06 18:55:20.560 ,4,1,0.,24.0,0.,24.0,0.,24.0,0.,24.0
1979-07-06 18:55:44.560 ,4,0,0.,24.0,0.,24.0,0.,24.0,0.,24.0
1979-07-06 18:56:08.560 ,3,1,0.,24.0,0.,24.0,0.,24.0,0.,24.0
1979-07-06 18:56:32.560 ,0,0,0.,24.0,0.,24.0,0.,24.0,0.,24.0
1979-07-06 18:57:12.160 ,0,0,,0,,0,,0,,0
1979-07-06 18:57:20.560 ,0,0,0.,24.0,0.,24.0,0.,24.0,0.,24.0
1979-07-06 18:57:44.560 ,1,1,0.,24.0,0.,24.0,0.,24.0,0.,24.0
1979-07-06 18:58:08.560 ,1,0,0.,24.0,0.,24.0,0.,24.0,0.,24.0
1979-07-06 18:58:32.560 ,0,1,0.,24.0,0.,24.0,0.,24.0,0.,24.0
1979-07-06 18:58:56.560 ,0,0,0.,24.0,0.,24.0,0.,24.0,0.,24.0
1979-07-06 18:59:20.560 ,0,1,0.,24.0,0.,24.0,0.,24.0,0.,24.0
1979-07-06 18:59:44.560 ,0,0,0.,24.0,0.,24.0,0.,24.0,0.,24.0
1979-07-06 19:00:08.560 ,1,1,0.,24.0,0.,24.0,0.,24.0,0.,24.0
1979-07-06 19:00:32.560 ,1,0,0.,24.0,0.,24.0,0.,24.0,0.,24.0
1979-07-06 19:00:56.560 ,2,1,0.,24.0,0.,24.0,0.,24.0,0.,24.0
1979-07-06 19:01:20.560 ,2,0,0.,24.0,0.,24.0,0.,24.0,0.,24.0
1979-07-06 19:01:44.560 ,3,1,0.,24.0,0.,24.0,0.,24.0,0.,24.0
1979-07-06 19:02:08.560 ,3,0,0.,24.0,0.,24.0,0.,24.0,0.,24.0
1979-07-06 19:02:32.560 ,4,1,0.,24.0,0.,24.0,0.,24.0,0.,24.0
1979-07-06 19:02:56.560 ,4,0,0.,24.0,0.,24.0,0.,24.0,0.,24.0
1979-07-06 19:03:20.560 ,5,1,0.,24.0,0.,24.0,0.,24.0,0.,24.0
1979-07-06 19:03:44.560 ,5,0,0.,24.0,0.,24.0,0.,24.0,0.,24.0
1979-07-06 19:04:08.560 ,6,1,0.,24.0,0.,24.0,0.,24.0,0.,24.0
1979-07-06 19:04:32.560 ,6,0,0.,24.0,0.,24.0,0.,24.0,0.,24.0
1979-07-06 19:04:56.560 ,7,1,0.,24.0,0.,24.0,0.,24.0,0.,24.0
1979-07-06 19:05:20.560 ,7,0,0.,24.0,0.,24.0,0.,24.0,0.,24.0
1979-07-06 19:05:44.560 ,7,1,0.,24.0,0.,24.0,0.,24.0,0.,24.0
1979-07-06 19:06:08.560 ,7,0,0.,24.0,0.,24.0,0.,24.0,0.,24.0
1979-07-06 19:06:32.560 ,6,1,0.,24.0,0.,24.0,0.,24.0,0.,24.0
1979-07-06 19:06:56.560 ,6,0,0.,24.0,0.,24.0,0.,24.0,0.,24.0
1979-07-06 19:07:20.560 ,5,1,0.,24.0,0.,24.0,0.,24.0,0.,24.0
1979-07-06 19:07:44.560 ,5,0,0.,24.0,0.,24.0,0.,24.0,0.,24.0
1979-07-06 19:08:08.560 ,4,1,0.,24.0,0.,24.0,0.,24.0,0.,24.0
1979-07-06 19:08:32.560 ,4,0,0.,24.0,0.,24.0,0.,24.0,0.,24.0
1979-07-06 19:08:56.560 ,3,1,0.,24.0,0.,24.0,0.,24.0,0.,24.0
1979-07-06 19:09:20.560 ,3,0,0.,24.0,0.,24.0,0.,24.0,0.,24.0
1979-07-06 19:09:44.560 ,2,1,0.,24.0,0.,24.0,0.,24.0,0.,24.0
1979-07-06 19:10:08.560 ,2,0,0.,24.0,0.,24.0,0.,24.0,0.,24.0
1979-07-06 19:10:32.560 ,1,1,0.,24.0,0.,24.0,0.,24.0,0.,24.0
1979-07-06 19:10:56.560 ,1,0,0.,24.0,0.,24.0,0.,24.0,0.,24.0
1979-07-06 19:11:20.560 ,0,1,0.,24.0,0.,24.0,0.,24.0,0.,24.0
1979-07-06 19:11:44.560 ,0,0,0.,24.0,0.,24.0,0.,24.0,0.,24.0
1979-07-06 19:12:08.560 ,0,1,0.,24.0,0.,24.0,0.,24.0,0.,24.0
1979-07-06 19:12:32.560 ,0,0,0.,24.0,0.,24.0,0.,24.0,0.,24.0
1979-07-06 19:12:56.560 ,1,1,0.,24.0,0.,24.0,0.,24.0,0.,24.0
1979-07-06 19:13:20.560 ,1,0,0.,24.0,0.,24.0,0.,24.0,0.,24.0
1979-07-06 19:13:44.560 ,2,1,0.,24.0,0.,24.0,0.,24.0,0.,24.0
1979-07-06 19:14:08.560 ,2,0,0.,24.0,0.,24.0,0.,24.0,0.,24.0
1979-07-06 19:14:32.560 ,3,1,0.,24.0,0.,24.0,0.,24.0,0.,24.0
1979-07-06 19:14:56.560 ,3,0,0.,24.0,0.,24.0,0.,24.0,0.,24.0
1979-07-06 19:15:20.560 ,4,1,0.,24.0,0.,24.0,0.,24.0,0.,24.0
1979-07-06 19:15:44.560 ,4,0,0.,24.0,0.,24.0,0.,24.0,0.,24.0
1979-07-06 19:16:08.560 ,5,1,0.,24.0,0.,24.0,0.,24.0,0.,24.0
1979-07-06 19:16:32.560 ,5,0,0.,24.0,0.,24.0,0.,24.0,0.,24.0
1979-07-06 19:16:56.560 ,6,1,0.,24.0,0.,24.0,0.,24.0,0.,24.0
1979-07-06 19:17:20.560 ,6,0,0.,24.0,0.,24.0,0.,24.0,0.,24.0
1979-07-06 19:17:44.560 ,7,1,0.,24.0,0.,24.0,0.,24.0,0.,24.0
1979-07-06 19:18:08.560 ,7,0,0.,24.0,0.,24.0,0.,24.0,0.,24.0
1979-07-06 19:18:32.560 ,7,1,0.,24.0,0.,24.0,0.,24.0,0.,24.0
1979-07-06 19:18:56.560 ,7,0,0.,24.0,0.,24.0,0.,24.0,0.,24.0
1979-07-06 19:19:20.560 ,6,1,0.,24.0,0.,24.0,0.,24.0,0.,24.0
1979-07-06 19:19:44.560 ,6,0,0.,24.0,0.,24.0,0.,24.0,0.,24.0
1979-07-06 19:20:08.560 ,5,1,0.,24.0,0.,24.0,0.,24.0,0.,24.0
1979-07-06 19:20:32.560 ,5,0,0.,24.0,0.,24.0,0.,24.0,0.,24.0
1979-07-06 19:20:56.560 ,4,1,0.,24.0,0.,24.0,0.,24.0,0.,24.0
1979-07-06 19:21:20.560 ,4,0,0.,24.0,0.,24.0,0.,24.0,0.,24.0
1979-07-06 19:21:44.560 ,3,1,0.,24.0,0.,24.0,0.,24.0,0.,24.0
1979-07-06 19:22:08.560 ,3,0,0.,24.0,0.,24.0,0.,24.0,0.,24.0
1979-07-06 19:22:32.560 ,2,1,0.,24.0,0.,24.0,0.,24.0,0.,24.0
1979-07-06 19:22:56.560 ,2,0,0.,24.0,0.,24.0,0.,24.0,0.,24.0
1979-07-06 19:23:20.560 ,1,1,0.,24.0,0.,24.0,0.,24.0,0.,24.0
1979-07-06 19:23:44.560 ,1,0,0.,24.0,0.,24.0,0.,24.0,0.,24.0
1979-07-06 19:24:08.560 ,0,1,0.,24.0,0.,24.0,0.,24.0,0.,24.0
1979-07-06 19:24:32.560 ,0,0,0.,24.0,0.,24.0,0.,24.0,0.,24.0
1979-07-06 19:24:56.560 ,0,1,0.,24.0,0.,24.0,0.,24.0,0.,24.0
1979-07-06 19:25:20.560 ,0,0,0.,24.0,0.,24.0,0.,24.0,0.,24.0
1979-07-06 19:25:44.560 ,1,1,0.,24.0,0.,24.0,0.,24.0,0.,24.0
1979-07-06 19:26:08.560 ,1,0,0.,24.0,0.,24.0,0.,24.0,0.,24.0
1979-07-06 19:26:32.560 ,2,1,0.,24.0,0.,24.0,0.,24.0,0.,24.0
1979-07-06 19:26:56.560 ,2,0,0.,24.0,0.,24.0,0.,24.0,0.,24.0
1979-07-06 19:27:20.560 ,3,1,0.,24.0,0.,24.0,0.,24.0,0.,24.0
1979-07-06 19:27:44.560 ,3,0,0.,24.0,0.,24.0,0.,24.0,0.,24.0
1979-07-06 19:28:08.560 ,4,1,0.,24.0,0.,24.0,0.,24.0,0.,24.0
1979-07-06 19:28:32.560 ,4,0,0.,24.0,0.,24.0,0.,24.0,0.,24.0
1979-07-06 19:28:56.560 ,5,1,0.,24.0,0.,24.0,0.,24.0,0.,24.0
1979-07-06 19:29:20.560 ,5,0,0.,24.0,0.,24.0,0.,24.0,0.,24.0
1979-07-06 19:29:44.560 ,6,1,0.,24.0,0.,24.0,0.,24.0,0.,24.0
1979-07-06 19:30:08.560 ,6,0,0.,24.0,0.,24.0,0.,24.0,0.,24.0
1979-07-06 19:30:32.560 ,7,0,0.,24.0,0.,24.0,0.,24.0,0.,24.0
1979-07-06 19:30:56.560 ,7,0,0.,24.0,0.,24.0,0.,24.0,0.,24.0
1979-07-06 19:31:20.560 ,5,1,0.,24.0,0.,24.0,0.,24.0,0.,24.0
1979-07-06 19:31:44.560 ,1,1,0.,24.0,0.,24.0,0.,24.0,0.,24.0
1979-07-06 19:32:08.560 ,2,1,0.,24.0,0.,24.0,0.,24.0,0.,24.0
1979-07-06 19:32:32.560 ,6,1,0.,24.0,0.,24.0,0.,24.0,0.,24.0
1979-07-06 19:32:56.560 ,5,1,0.,24.0,0.,24.0,0.,24.0,0.,24.0
1979-07-06 19:33:20.560 ,1,1,0.,24.0,0.,24.0,0.,24.0,0.,24.0
1979-07-06 19:33:44.560 ,2,1,0.,24.0,0.,24.0,0.,24.0,0.,24.0
1979-07-06 19:34:08.560 ,6,1,0.,24.0,0.,24.0,0.,24.0,0.,24.0
1979-07-06 19:34:32.560 ,5,1,0.,24.0,0.,24.0,0.,24.0,0.,24.0
1979-07-06 19:34:56.560 ,1,1,0.,24.0,0.,24.0,0.,24.0,0.,24.0
1979-07-06 19:35:20.560 ,2,1,0.,24.0,0.,24.0,0.,24.0,0.,24.0
1979-07-06 19:35:44.560 ,6,1,0.,24.0,0.,24.0,0.,24.0,0.,24.0
1979-07-06 19:36:08.560 ,5,1,0.,24.0,0.,24.0,0.,24.0,0.,24.0
1979-07-06 19:36:32.560 ,1,1,0.,24.0,0.,24.0,0.,24.0,0.,24.0
1979-07-06 19:36:56.560 ,2,1,0.,24.0,0.,24.0,0.,24.0,0.,24.0
1979-07-06 19:37:20.560 ,6,1,0.,24.0,0.,24.0,0.,24.0,0.,24.0
1979-07-06 19:37:44.560 ,5,1,0.,24.0,0.,24.0,0.,24.0,0.,24.0
1979-07-06 19:38:08.560 ,1,1,0.,24.0,0.,24.0,0.,24.0,0.,24.0
1979-07-06 19:38:32.560 ,2,1,0.,24.0,0.,24.0,0.,24.0,0.,24.0
1979-07-06 19:38:56.560 ,6,1,0.,24.0,0.,24.0,0.,24.0,0.,24.0
1979-07-06 19:39:20.560 ,5,1,0.,24.0,0.,24.0,0.,24.0,0.,24.0
1979-07-06 19:39:44.560 ,1,1,0.,24.0,0.,24.0,0.,24.0,0.,24.0
1979-07-06 19:40:08.560 ,2,1,0.,24.0,0.,24.0,0.,24.0,0.,24.0
1979-07-06 19:40:32.560 ,6,1,0.,24.0,0.,24.0,0.,24.0,0.,24.0
1979-07-06 19:40:56.560 ,5,1,0.,24.0,0.,24.0,0.,24.0,0.,24.0
1979-07-06 19:41:20.560 ,1,1,0.,24.0,0.,24.0,0.,24.0,0.,24.0
1979-07-06 19:41:44.560 ,0,0,0.,24.0,0.,24.0,0.,24.0,0.,24.0
1979-07-06 19:42:08.560 ,0,0,0.,24.0,0.,24.0,0.,24.0,0.,24.0
1979-07-06 19:42:32.560 ,5,1,0.,24.0,0.,24.0,0.,24.0,0.,24.0
1979-07-06 19:42:56.560 ,5,0,0.,24.0,0.,24.0,0.,24.0,0.,24.0
1979-07-06 19:43:20.560 ,4,1,0.,24.0,0.,24.0,0.,24.0,0.,24.0
1979-07-06 19:43:44.560 ,4,0,0.,24.0,0.,24.0,0.,24.0,0.,24.0
1979-07-06 19:44:08.560 ,3,1,0.,24.0,0.,24.0,0.,24.0,0.,24.0
1979-07-06 19:44:32.560 ,3,0,0.,24.0,0.,24.0,0.,24.0,0.,24.0
1979-07-06 19:44:56.560 ,2,1,0.,24.0,0.,24.0,0.,24.0,0.,24.0
1979-07-06 19:45:20.560 ,2,0,0.,24.0,0.,24.0,0.,24.0,0.,24.0
1979-07-06 19:45:44.560 ,1,1,0.,24.0,0.,24.0,0.,24.0,0.,24.0
1979-07-06 19:46:08.560 ,1,0,0.,24.0,0.,24.0,0.,24.0,0.,24.0
1979-07-06 19:46:32.560 ,0,1,0.,24.0,0.,24.0,0.,24.0,0.,24.0
1979-07-06 19:46:56.560 ,0,0,0.,24.0,0.,24.0,0.,24.0,0.,24.0
1979-07-06 19:47:20.560 ,0,1,0.,24.0,0.,24.0,0.,24.0,0.,24.0
1979-07-06 19:47:44.560 ,0,0,0.,24.0,0.,24.0,0.,24.0,0.,24.0
1979-07-06 19:48:08.560 ,1,1,0.,24.0,0.,24.0,0.,24.0,0.,24.0
1979-07-06 19:48:32.560 ,1,0,0.,24.0,0.,24.0,0.,24.0,0.,24.0
1979-07-06 19:48:56.560 ,2,1,0.,24.0,0.,24.0,0.,24.0,0.,24.0
1979-07-06 19:49:20.560 ,2,0,0.,24.0,0.,24.0,0.,24.0,0.,24.0
1979-07-06 19:49:44.550 ,3,1,0.,24.0,0.,24.0,0.,24.0,0.,24.0
1979-07-06 19:50:08.550 ,3,0,0.,24.0,0.,24.0,0.,24.0,0.,24.0
1979-07-06 19:50:32.550 ,4,1,0.,24.0,0.,24.0,0.,24.0,0.,24.0
1979-07-06 19:50:56.550 ,4,0,0.,24.0,0.,24.0,0.,24.0,0.,24.0
1979-07-06 19:51:20.550 ,5,1,0.,24.0,0.,24.0,0.,24.0,0.,24.0
1979-07-06 19:51:44.550 ,5,0,0.,24.0,0.,24.0,0.,24.0,0.,24.0
1979-07-06 19:52:08.550 ,6,1,0.,24.0,0.,24.0,0.,24.0,0.,24.0
1979-07-06 19:52:32.550 ,6,0,0.,24.0,0.,24.0,0.,24.0,0.,24.0
1979-07-06 19:52:56.550 ,7,1,0.,24.0,0.,24.0,0.,24.0,0.,24.0
1979-07-06 19:53:20.550 ,7,0,0.,24.0,0.,24.0,0.,24.0,0.,24.0
1979-07-06 19:53:44.550 ,7,1,0.,24.0,0.,24.0,0.,24.0,0.,24.0
1979-07-06 19:54:08.550 ,7,0,0.,24.0,0.,24.0,0.,24.0,0.,24.0
1979-07-06 19:54:32.550 ,6,1,0.,24.0,0.,24.0,0.,24.0,0.,24.0
1979-07-06 19:54:56.550 ,6,0,0.,24.0,0.,24.0,0.,24.0,0.,24.0
1979-07-06 19:55:20.550 ,5,1,0.,24.0,0.,24.0,0.,24.0,0.,24.0
1979-07-06 19:55:44.550 ,5,0,0.,24.0,0.,24.0,0.,24.0,0.,24.0
1979-07-06 19:56:08.550 ,4,1,0.,24.0,0.,24.0,0.,24.0,0.,24.0
1979-07-06 19:56:32.550 ,4,0,0.,24.0,0.,24.0,0.,24.0,0.,24.0
1979-07-06 19:56:56.550 ,3,1,0.,24.0,0.,24.0,0.,24.0,0.,24.0
1979-07-06 19:57:20.550 ,3,0,0.,24.0,0.,24.0,0.,24.0,0.,24.0
1979-07-06 19:57:44.550 ,2,1,0.,24.0,0.,24.0,0.,24.0,0.,24.0
1979-07-06 19:58:08.550 ,2,0,0.,24.0,0.,24.0,0.,24.0,0.,24.0
1979-07-06 19:58:32.550 ,1,1,0.,24.0,0.,24.0,0.,24.0,0.,24.0
1979-07-06 19:58:56.550 ,1,0,0.,24.0,0.,24.0,0.,24.0,0.,24.0
1979-07-06 19:59:20.550 ,0,1,0.,24.0,0.,24.0,0.,24.0,0.,24.0
1979-07-06 19:59:44.550 ,0,0,0.,24.0,0.,24.0,0.,24.0,0.,24.0
1979-07-06 20:00:08.560 ,0,1,0.,24.0,0.,24.0,0.,24.0,0.,24.0
1979-07-06 20:00:32.560 ,0,0,0.,24.0,0.,24.0,0.,24.0,0.,24.0
1979-07-06 20:00:56.560 ,1,1,0.,24.0,0.,24.0,0.,24.0,0.,24.0
1979-07-06 20:01:20.560 ,1,0,0.,24.0,0.,24.0,0.,24.0,0.,24.0
1979-07-06 20:01:44.560 ,2,1,0.,24.0,0.,24.0,0.,24.0,0.,24.0
1979-07-06 20:02:08.550 ,2,0,0.,24.0,0.,24.0,0.,24.0,0.,24.0
1979-07-06 20:02:32.560 ,3,1,0.,24.0,0.,24.0,0.,24.0,0.,24.0
1979-07-06 20:02:56.560 ,3,0,0.,24.0,0.,24.0,0.,24.0,0.,24.0
1979-07-06 20:03:20.560 ,4,1,0.,24.0,0.,24.0,0.,24.0,0.,24.0
1979-07-06 20:03:44.560 ,4,0,0.,24.0,0.,24.0,0.,24.0,0.,24.0
1979-07-06 20:04:08.550 ,5,1,0.,24.0,0.,24.0,0.,24.0,0.,24.0
1979-07-06 20:04:32.550 ,5,0,0.,24.0,0.,24.0,0.,24.0,0.,24.0
1979-07-06 20:04:56.550 ,6,1,0.,24.0,0.,24.0,0.,24.0,0.,24.0
1979-07-06 20:05:20.550 ,6,0,0.,24.0,0.,24.0,0.,24.0,0.,24.0
1979-07-06 20:05:44.550 ,7,1,0.,24.0,0.,24.0,0.,24.0,0.,24.0
1979-07-06 20:06:08.550 ,7,0,0.,24.0,0.,24.0,0.,24.0,0.,24.0
1979-07-06 20:06:32.550 ,7,1,0.,24.0,0.,24.0,0.,24.0,0.,24.0
1979-07-06 20:06:56.550 ,7,0,0.,24.0,0.,24.0,0.,24.0,0.,24.0
1979-07-06 20:07:20.550 ,6,1,0.,24.0,0.,24.0,0.,24.0,0.,24.0
1979-07-06 20:07:44.550 ,6,0,0.,24.0,0.,24.0,0.,24.0,0.,24.0
1979-07-06 20:08:08.550 ,5,1,0.,24.0,0.,24.0,0.,24.0,0.,24.0
1979-07-06 20:08:32.550 ,5,0,0.,24.0,0.,24.0,0.,24.0,0.,24.0
1979-07-06 20:08:56.560 ,4,1,0.,24.0,0.,24.0,0.,24.0,0.,24.0
1979-07-06 20:09:20.560 ,4,0,0.,24.0,0.,24.0,0.,24.0,0.,24.0
1979-07-06 20:09:44.560 ,3,1,0.,24.0,0.,24.0,0.,24.0,0.,24.0
1979-07-06 20:10:08.560 ,3,0,0.,24.0,0.,24.0,0.,24.0,0.,24.0
1979-07-06 20:10:32.560 ,2,1,0.,24.0,0.,24.0,0.,24.0,0.,24.0
1979-07-06 20:10:56.560 ,2,0,0.,24.0,0.,24.0,0.,24.0,0.,24.0
1979-07-06 20:11:20.560 ,1,1,0.,24.0,0.,24.0,0.,24.0,0.,24.0
1979-07-06 20:11:44.560 ,1,0,0.,24.0,0.,24.0,0.,24.0,0.,24.0
1979-07-06 20:12:08.560 ,0,1,0.,24.0,0.,24.0,0.,24.0,0.,24.0
1979-07-06 20:12:32.560 ,0,0,0.,24.0,0.,24.0,0.,24.0,0.,24.0
1979-07-06 20:12:56.550 ,0,1,0.,24.0,0.,24.0,0.,24.0,0.,24.0
1979-07-06 20:13:20.550 ,0,0,0.,24.0,0.,24.0,0.,24.0,0.,24.0
1979-07-06 20:13:44.550 ,1,1,0.,24.0,0.,24.0,0.,24.0,0.,24.0
1979-07-06 20:14:08.550 ,1,0,0.,24.0,0.,24.0,0.,24.0,0.,24.0
1979-07-06 20:14:32.550 ,2,1,0.,24.0,0.,24.0,0.,24.0,0.,24.0
1979-07-06 20:14:56.550 ,2,0,0.,24.0,0.,24.0,0.,24.0,0.,24.0
1979-07-06 20:15:20.550 ,3,1,0.,24.0,0.,24.0,0.,24.0,0.,24.0
1979-07-06 20:15:44.550 ,3,0,0.,24.0,0.,24.0,0.,24.0,0.,24.0
1979-07-06 20:16:08.550 ,4,1,0.,24.0,0.,24.0,0.,24.0,0.,24.0
1979-07-06 20:16:32.550 ,4,0,0.,24.0,0.,24.0,0.,24.0,0.,24.0
1979-07-06 20:16:56.550 ,5,1,0.,24.0,0.,24.0,0.,24.0,0.,24.0
1979-07-06 20:17:20.550 ,5,0,0.,24.0,0.,24.0,0.,24.0,0.,24.0
1979-07-06 20:17:44.550 ,6,1,0.,24.0,0.,24.0,0.,24.0,0.,24.0
1979-07-06 20:18:08.550 ,6,0,0.,24.0,0.,24.0,0.,24.0,0.,24.0
1979-07-06 20:18:32.550 ,7,0,0.,24.0,0.,24.0,0.,24.0,0.,24.0
1979-07-06 20:18:56.550 ,7,0,0.,24.0,0.,24.0,0.,24.0,0.,24.0
1979-07-06 20:19:20.550 ,5,1,0.,24.0,0.,24.0,0.,24.0,0.,24.0
1979-07-06 20:19:44.550 ,1,1,0.,24.0,0.,24.0,0.,24.0,0.,24.0
1979-07-06 20:20:08.550 ,2,1,0.,24.0,0.,24.0,0.,24.0,0.,24.0
1979-07-06 20:20:32.550 ,6,1,0.,24.0,0.,24.0,0.,24.0,0.,24.0
1979-07-06 20:20:56.550 ,5,1,0.,24.0,0.,24.0,0.,24.0,0.,24.0
1979-07-06 20:21:20.550 ,1,1,0.,24.0,0.,24.0,0.,24.0,0.,24.0
1979-07-06 20:20:56.550 ,5,1,0.,24.0,0.,24.0,0.,24.0,0.,24.0
1979-07-06 20:21:20.550 ,1,1,0.,24.0,0.,24.0,0.,24.0,0.,24.0
1979-07-06 20:21:44.550 ,2,1,0.,24.0,0.,24.0,0.,24.0,0.,24.0
1979-07-06 20:22:08.550 ,6,1,0.,24.0,0.,24.0,0.,24.0,0.,24.0
1979-07-06 20:22:32.550 ,5,1,0.,24.0,0.,24.0,0.,24.0,0.,24.0
1979-07-06 20:22:56.550 ,1,1,0.,24.0,0.,24.0,0.,24.0,0.,24.0
1979-07-06 20:23:20.550 ,2,1,0.,24.0,0.,24.0,0.,24.0,0.,24.0
1979-07-06 20:23:44.550 ,6,1,0.,24.0,0.,24.0,0.,24.0,0.,24.0
1979-07-06 20:24:08.550 ,5,1,0.,24.0,0.,24.0,0.,24.0,0.,24.0
1979-07-06 20:24:32.550 ,1,1,0.,24.0,0.,24.0,0.,24.0,0.,24.0
1979-07-06 20:24:56.550 ,2,1,0.,24.0,0.,24.0,0.,24.0,0.,24.0
1979-07-06 20:25:20.550 ,6,1,0.,24.0,0.,24.0,0.,24.0,0.,24.0
1979-07-06 20:25:44.550 ,5,1,0.,24.0,0.,24.0,0.,24.0,0.,24.0
1979-07-06 20:26:08.550 ,1,1,0.,24.0,0.,24.0,0.,24.0,0.,24.0
1979-07-06 20:26:32.550 ,2,1,0.,24.0,0.,24.0,0.,24.0,0.,24.0
1979-07-06 20:26:56.550 ,6,1,0.,24.0,0.,24.0,0.,24.0,0.,24.0
1979-07-06 20:27:20.550 ,5,1,0.,24.0,0.,24.0,0.,24.0,0.,24.0
1979-07-06 20:27:44.550 ,1,1,0.,24.0,0.,24.0,0.,24.0,0.,24.0
1979-07-06 20:28:08.550 ,2,1,0.,24.0,0.,24.0,0.,24.0,0.,24.0
1979-07-06 20:28:32.550 ,6,1,0.,24.0,0.,24.0,0.,24.0,0.,24.0
1979-07-06 20:28:56.550 ,5,1,0.,24.0,0.,24.0,0.,24.0,0.,24.0
1979-07-06 20:29:20.550 ,1,1,0.,24.0,0.,24.0,0.,24.0,0.,24.0
1979-07-06 20:29:44.550 ,0,0,0.,24.0,0.,24.0,0.,24.0,0.,24.0
1979-07-06 20:30:08.550 ,0,0,0.,24.0,0.,24.0,0.,24.0,0.,24.0
1979-07-06 20:30:32.550 ,5,1,0.,24.0,0.,24.0,0.,24.0,0.,24.0
1979-07-06 20:30:56.550 ,5,0,0.,24.0,0.,24.0,0.,24.0,0.,24.0
1979-07-06 20:31:20.550 ,4,1,0.,24.0,0.,24.0,0.,24.0,0.,24.0
1979-07-06 20:31:44.550 ,4,0,0.,24.0,0.,24.0,0.,24.0,0.,24.0
1979-07-06 20:32:08.550 ,3,1,0.,24.0,0.,24.0,0.,24.0,0.,24.0
1979-07-06 20:32:32.550 ,3,0,0.,24.0,0.,24.0,0.,24.0,0.,24.0
1979-07-06 20:32:56.550 ,2,1,0.,24.0,0.,24.0,0.,24.0,0.,24.0
1979-07-06 20:33:20.550 ,2,0,0.,24.0,0.,24.0,0.,24.0,0.,24.0
1979-07-06 20:33:44.550 ,1,1,0.,24.0,0.,24.0,0.,24.0,0.,24.0